Location: Caixon
(43.4106°N, 0.0273°E)
Time: 03:10:55
(UTC+00:00)

Cosmos 1980 Rocket - Pass Details

Date: 16 October 2021
Orbit: 828 x 851 km, 71.0° (Epoch: 30 November)

Event Time Altitude Azimuth Distance (km) Brightness Sun altitude
Rises 04:05:09 0° 335° (NNW) 3,426 5.2 -24.3°
Reaches altitude 10° 04:07:37 10° 336° (NNW) 2,487 4.5 -23.8°
Maximum altitude 04:13:21 83° 65° (ENE) 863 2.2 -22.8°
Drops below altitude 10° 04:19:02 10° 154° (SSE) 2,467 4.8 -21.8°
Sets 04:21:28 0° 155° (SSE) 3,397 5.6 -21.4°
